sat.trackr.live / text

‹ back to catalog

KUIPER-00118

NORAD 65154 · 2025-171Y

PAYLOAD ACTIVE UNKNOWN

§ Identity

Operator
Country
US
Launch date
2025-08-11
Launch site
AFETR
Launch vehicle
Mass (kg)
RCS (m²)

External: N2YO · Heavens-Above · Gunter

§ Orbital elements

Epoch: 2026-09-21T12:41:30.221664Z

Period
97.30 min
Inclination
51.8997°
Eccentricity
0.0000537
Mean motion
14.79930225 rev/d
Perigee alt
629.2 km
Apogee alt
629.9 km
Semi-major
7,007.7 km
B*
-1.9160e-5
RAAN
29.5766°
Arg perigee
104.1240°
Mean anomaly
255.9782°
Rev number
6,164

§ Raw data

KUIPER-001181 65154U 25171Y   26264.52882201 -.00000367  00000+0 -19160-4 0  99932 65154  51.8997  29.5766 0000537 104.1240 255.9782 14.79930225 61641

JSON: /api/v1/satellites/65154 · /tle

For live sub-satellite position, see the globe view (requires WebGL).

§ Visibility from observer

Set your observer location to see the next 7 days of passes ≥ 10°. The values pass through the URL so the page stays shareable.

No JS? Fill the form by hand. The geolocation button needs JavaScript.